When you browse on this site, cookies collect data to enhance your experience and personalize the content and advertising you see.
Visit our Privacy Policy to learn more. By continuing to use the site, you agree to this use of cookies and data.
  • In Portugal
  • List of Countries
  • For 7 days
  • Water Temperature
  • Weather Map
  • Weather Widgets
  • user-avatar
    Login

    Hourly Weather Miskolc

    Today, 26 May, Tuesday

    Time Temperature Precipitation Wind Pressure Humidity
    00:00 +8°C° 0 mm 3 mps 754 mmHg 90%
    01:00 +8°C° 0 mm 2 mps 754 mmHg 90%
    02:00 +7°C° 0 mm 3 mps 754 mmHg 91%
    03:00 +7°C° 0 mm 3 mps 754 mmHg 91%
    04:00 +7°C° 0 mm 3 mps 754 mmHg 92%
    05:00 +9°C° 0 mm 3 mps 754 mmHg 87%
    06:00 +10°C° 0 mm 4 mps 755 mmHg 82%
    07:00 +12°C° 0 mm 5 mps 755 mmHg 78%
    08:00 +13°C° 0.3 mm 5 mps 755 mmHg 75%
    09:00 +14°C° 0.3 mm 6 mps 755 mmHg 71%
    10:00 +15°C° 0.3 mm 6 mps 755 mmHg 68%
    11:00 +16°C° 0.5 mm 6 mps 754 mmHg 66%
    12:00 +17°C° 0.5 mm 5 mps 754 mmHg 64%
    13:00 +17°C° 0.5 mm 5 mps 754 mmHg 61%
    14:00 +17°C° 0.4 mm 5 mps 754 mmHg 64%
    15:00 +17°C° 0.4 mm 5 mps 754 mmHg 66%
    16:00 +17°C° 0.4 mm 5 mps 754 mmHg 69%
    17:00 +15°C° 0.1 mm 5 mps 754 mmHg 73%
    18:00 +14°C° 0.1 mm 4 mps 754 mmHg 77%
    19:00 +12°C° 0.1 mm 4 mps 754 mmHg 81%
    20:00 +12°C° 0 mm 4 mps 754 mmHg 81%
    21:00 +11°C° 0 mm 4 mps 754 mmHg 82%
    22:00 +11°C° 0 mm 4 mps 755 mmHg 82%
    23:00 +11°C° 0 mm 4 mps 755 mmHg 83%

    Tomorrow, 27 May, Wednesday

    Time Temperature Precipitation Wind Pressure Humidity
    00:00 +11°C° 0 mm 4 mps 755 mmHg 83%
    01:00 +11°C° 0 mm 4 mps 755 mmHg 84%
    02:00 +11°C° 0 mm 4 mps 755 mmHg 85%
    03:00 +10°C° 0 mm 4 mps 755 mmHg 86%
    04:00 +10°C° 0 mm 3 mps 755 mmHg 88%
    05:00 +11°C° 0 mm 4 mps 755 mmHg 84%
    06:00 +13°C° 0 mm 4 mps 755 mmHg 80%
    07:00 +14°C° 0 mm 5 mps 755 mmHg 77%
    08:00 +15°C° 0.1 mm 5 mps 755 mmHg 72%
    09:00 +16°C° 0.1 mm 6 mps 756 mmHg 67%
    10:00 +17°C° 0.1 mm 7 mps 756 mmHg 63%
    11:00 +19°C° 0.2 mm 6 mps 755 mmHg 60%
    12:00 +20°C° 0.2 mm 6 mps 755 mmHg 58%
    13:00 +21°C° 0.2 mm 5 mps 755 mmHg 56%
    14:00 +20°C° 0.2 mm 5 mps 754 mmHg 57%
    15:00 +20°C° 0.2 mm 5 mps 754 mmHg 58%
    16:00 +20°C° 0.2 mm 5 mps 754 mmHg 60%
    17:00 +19°C° 0 mm 4 mps 754 mmHg 65%
    18:00 +17°C° 0 mm 3 mps 754 mmHg 69%
    19:00 +15°C° 0 mm 2 mps 754 mmHg 74%
    20:00 +14°C° 0 mm 2 mps 754 mmHg 75%
    21:00 +14°C° 0 mm 2 mps 754 mmHg 76%
    22:00 +13°C° 0 mm 2 mps 754 mmHg 76%
    23:00 +12°C° 0 mm 2 mps 754 mmHg 78%

    Day after tomorrow, 28 May, Thursday

    Time Temperature Precipitation Wind Pressure Humidity
    00:00 +12°C° 0 mm 2 mps 754 mmHg 80%
    01:00 +10°C° 0 mm 2 mps 754 mmHg 81%
    02:00 +10°C° 0 mm 2 mps 754 mmHg 82%
    03:00 +10°C° 0 mm 2 mps 753 mmHg 83%
    04:00 +10°C° 0 mm 2 mps 753 mmHg 84%
    05:00 +12°C° 0 mm 3 mps 753 mmHg 79%
    06:00 +13°C° 0 mm 3 mps 753 mmHg 74%
    07:00 +16°C° 0 mm 3 mps 753 mmHg 69%
    08:00 +17°C° 0.1 mm 3 mps 753 mmHg 65%
    09:00 +18°C° 0.1 mm 3 mps 753 mmHg 62%
    10:00 +19°C° 0.1 mm 4 mps 752 mmHg 59%
    11:00 +19°C° 0.4 mm 3 mps 752 mmHg 58%
    12:00 +20°C° 0.4 mm 3 mps 752 mmHg 57%
    13:00 +20°C° 0.4 mm 3 mps 751 mmHg 56%
    14:00 +20°C° 0.3 mm 3 mps 751 mmHg 59%
    15:00 +19°C° 0.3 mm 3 mps 751 mmHg 62%
    16:00 +19°C° 0.3 mm 3 mps 751 mmHg 64%
    17:00 +17°C° 0.4 mm 3 mps 751 mmHg 70%
    18:00 +14°C° 0.4 mm 3 mps 751 mmHg 75%
    19:00 +13°C° 0.4 mm 3 mps 751 mmHg 81%
    20:00 +12°C° 0.1 mm 3 mps 751 mmHg 81%
    21:00 +13°C° 0.1 mm 2 mps 751 mmHg 81%
    22:00 +12°C° 0.1 mm 2 mps 751 mmHg 82%
    23:00 +12°C° 0 mm 2 mps 751 mmHg 82%

    29 May, Friday

    Time Temperature Precipitation Wind Pressure Humidity
    00:00 +10°C° 0 mm 2 mps 751 mmHg 83%
    01:00 +10°C° 0 mm 3 mps 751 mmHg 84%
    02:00 +10°C° 0 mm 3 mps 751 mmHg 85%
    03:00 +9°C° 0 mm 2 mps 751 mmHg 86%
    04:00 +9°C° 0 mm 2 mps 751 mmHg 87%
    05:00 +10°C° 0 mm 3 mps 751 mmHg 83%
    06:00 +12°C° 0 mm 3 mps 751 mmHg 79%
    07:00 +13°C° 0 mm 4 mps 751 mmHg 75%
    08:00 +14°C° 0.2 mm 4 mps 751 mmHg 71%
    09:00 +15°C° 0.2 mm 5 mps 751 mmHg 67%
    10:00 +16°C° 0.2 mm 6 mps 751 mmHg 63%
    11:00 +16°C° 0.3 mm 6 mps 751 mmHg 62%
    12:00 +17°C° 0.3 mm 7 mps 751 mmHg 61%
    13:00 +17°C° 0.3 mm 7 mps 750 mmHg 59%
    14:00 +17°C° 0 mm 7 mps 750 mmHg 58%
    15:00 +17°C° 0 mm 6 mps 750 mmHg 56%
    16:00 +17°C° 0 mm 6 mps 750 mmHg 55%
    17:00 +16°C° 0 mm 5 mps 750 mmHg 60%
    18:00 +14°C° 0 mm 5 mps 750 mmHg 65%
    19:00 +13°C° 0 mm 4 mps 750 mmHg 69%
    20:00 +12°C° 0 mm 4 mps 750 mmHg 69%
    21:00 +11°C° 0 mm 4 mps 751 mmHg 69%
    22:00 +10°C° 0 mm 4 mps 751 mmHg 69%
    23:00 +10°C° 0 mm 4 mps 751 mmHg 69%

    30 May, Saturday

    Time Temperature Precipitation Wind Pressure Humidity
    00:00 +8°C° 0 mm 4 mps 751 mmHg 69%
    01:00 +8°C° 0 mm 4 mps 751 mmHg 69%
    02:00 +7°C° 0 mm 4 mps 751 mmHg 70%
    03:00 +7°C° 0 mm 4 mps 751 mmHg 71%
    04:00 +7°C° 0 mm 4 mps 751 mmHg 72%
    05:00 +8°C° 0 mm 4 mps 751 mmHg 69%
    06:00 +10°C° 0 mm 5 mps 751 mmHg 66%
    07:00 +11°C° 0 mm 6 mps 751 mmHg 63%
    08:00 +14°C° 0 mm 6 mps 751 mmHg 58%
    09:00 +15°C° 0 mm 6 mps 751 mmHg 53%
    10:00 +16°C° 0 mm 6 mps 751 mmHg 48%
    11:00 +17°C° 0 mm 5 mps 750 mmHg 47%
    12:00 +17°C° 0 mm 5 mps 750 mmHg 46%
    13:00 +19°C° 0 mm 5 mps 750 mmHg 45%
    14:00 +17°C° 0 mm 5 mps 750 mmHg 47%
    15:00 +18°C° 0 mm 4 mps 750 mmHg 49%
    16:00 +18°C° 0 mm 4 mps 750 mmHg 50%
    17:00 +15°C° 0 mm 4 mps 750 mmHg 56%
    18:00 +14°C° 0 mm 3 mps 749 mmHg 62%
    19:00 +13°C° 0 mm 2 mps 749 mmHg 68%
    20:00 +12°C° 0 mm 2 mps 750 mmHg 69%
    21:00 +10°C° 0 mm 2 mps 750 mmHg 69%
    22:00 +9°C° 0 mm 2 mps 750 mmHg 70%
    23:00 +9°C° 0 mm 2 mps 750 mmHg 70%

    31 May, Sunday

    Time Temperature Precipitation Wind Pressure Humidity
    00:00 +9°C° 0 mm 2 mps 750 mmHg 71%
    01:00 +9°C° 0 mm 2 mps 750 mmHg 71%
    02:00 +8°C° 0 mm 2 mps 750 mmHg 72%
    03:00 +8°C° 0 mm 2 mps 750 mmHg 73%
    04:00 +8°C° 0 mm 2 mps 750 mmHg 74%
    05:00 +9°C° 0 mm 2 mps 750 mmHg 71%
    06:00 +12°C° 0 mm 1 mps 750 mmHg 68%
    07:00 +14°C° 0 mm 1 mps 750 mmHg 65%
    08:00 +15°C° 0 mm 1 mps 750 mmHg 60%
    09:00 +16°C° 0 mm 1 mps 750 mmHg 55%
    10:00 +19°C° 0 mm 1 mps 750 mmHg 51%
    11:00 +19°C° 0 mm 1 mps 750 mmHg 51%
    12:00 +19°C° 0 mm 1 mps 749 mmHg 51%
    13:00 +20°C° 0 mm 1 mps 749 mmHg 50%
    14:00 +20°C° 0 mm 1 mps 749 mmHg 50%
    15:00 +20°C° 0 mm 1 mps 749 mmHg 50%
    16:00 +20°C° 0 mm 1 mps 749 mmHg 50%
    17:00 +19°C° 0 mm 1 mps 748 mmHg 57%
    18:00 +16°C° 0 mm 2 mps 748 mmHg 64%
    19:00 +15°C° 0 mm 2 mps 748 mmHg 72%
    20:00 +14°C° 0 mm 2 mps 749 mmHg 72%
    21:00 +13°C° 0 mm 1 mps 749 mmHg 72%
    22:00 +12°C° 0 mm 1 mps 749 mmHg 72%
    23:00 +12°C° 0 mm 1 mps 749 mmHg 75%
    Show more